Norfolk, VA

10:54 AM EST on November 21, 2017 (GMT -0500)
Norfolk International

Weather History for KORF - July, 2013

Change the Weather History Date:

Thursday, July 11, 2013

  Actual Average Record
Temperature  
Mean Temperature 80 °F 80 °F  
Max Temperature 87 °F 88 °F 102 °F (1879)
Min Temperature 73 °F 72 °F 59 °F (1961)
Degree Days  
Heating Degree Days 0 0  
Month to date heating degree days 0 0  
Since 1 June heating degree days 0 6  
Since 1 July heating degree days 0 0  
Cooling Degree Days 15 15  
Month to date cooling degree days 185 159  
Year to date cooling degree days 768 640  
Since 1 June cooling degree days 547 474  
Growing Degree Days 30 (Base 50)    
Moisture  
Dew Point 71 °F    
Average Humidity 74    
Maximum Humidity 93    
Minimum Humidity 55    
Precipitation  
Precipitation 1.23 in 0.16 in 2.33 in (2015)
Month to date precipitation 3.19 1.61  
Year to date precipitation 23.23 22.89  
Snow  
Snow 0.00 in 0.00 in 0.00 in (2002)
Month to date snowfall 0.0 0.0  
Since 1 July snowfall 0.0 0.0  
Snow Depth 0.00 in    
Sea Level Pressure  
Sea Level Pressure 29.92 in    
Wind  
Wind Speed 9 mph (SSW)    
Max Wind Speed 17 mph    
Max Gust Speed 23 mph    
Visibility 8 miles    
Events Fog , Rain , Thunderstorm    
T = Trace of Precipitation, MM = Missing Value Source: NWS Daily Summary

Daily Weather History Graph

Daily Weather History Graph

Search for Another Location

Airport or City:

Trip Planner

Search our weather history database for the weather conditions in past years. The results will help you decide how hot, cold, wet, or windy it might be!

Date:

Astronomy

Jul. 11, 2013 Rise Set
Actual Time 5:54 AM EDT 8:25 PM EDT
Civil Twilight 5:24 AM EDT 8:55 PM EDT
Nautical Twilight 4:47 AM EDT 9:33 PM EDT
Astronomical Twilight 4:05 AM EDT 10:14 PM EDT
Moon 9:05 AM EDT (7/11) 10:11 PM EDT (7/11)
Length of Visible Light 15h 31m
Length of Day
14h 30m
Waxing Crescent, 10% of the Moon is Illuminated
Jul 11
Waxing Crescent
Jul 15
First Quarter
Jul 22
Full
Jul 29
Last Quarter
Aug 6
New

Hourly Weather History & Observations

Time (EDT) Temp. Heat Index Dew Point Humidity Pressure Visibility Wind Dir Wind Speed Gust Speed Precip Events Conditions
12:51 AM 79.0 °F - 70.0 °F 74% 29.96 in 10.0 mi SSW 13.8 mph - N/A   Clear
1:51 AM 78.1 °F - 70.0 °F 76% 29.96 in 10.0 mi SSW 13.8 mph - N/A   Mostly Cloudy
2:51 AM 77.0 °F - 70.0 °F 79% 29.94 in 10.0 mi SSW 13.8 mph - N/A   Scattered Clouds
3:51 AM 77.0 °F - 70.0 °F 79% 29.93 in 10.0 mi SSW 12.7 mph - N/A   Scattered Clouds
4:51 AM 75.9 °F - 71.1 °F 85% 29.94 in 10.0 mi SSW 11.5 mph - N/A   Partly Cloudy
5:51 AM 77.0 °F - 71.1 °F 82% 29.94 in 10.0 mi South 13.8 mph - N/A   Clear
6:51 AM 77.0 °F - 72.0 °F 84% 29.95 in 10.0 mi SSW 11.5 mph - N/A   Clear
7:51 AM 77.0 °F - 72.0 °F 84% 29.95 in 10.0 mi SSW 13.8 mph - N/A   Scattered Clouds
8:51 AM 79.0 °F - 72.0 °F 79% 29.94 in 10.0 mi SSW 10.4 mph - N/A   Partly Cloudy
9:51 AM 82.9 °F 88.0 °F 72.0 °F 69% 29.93 in 10.0 mi SW 13.8 mph 18.4 mph N/A   Mostly Cloudy
10:12 AM 82.4 °F 87.2 °F 71.6 °F 70% 29.93 in 10.0 mi SW 13.8 mph 20.7 mph N/A   Mostly Cloudy
10:31 AM 84.2 °F 89.6 °F 71.6 °F 66% 29.93 in 10.0 mi WSW 13.8 mph 21.9 mph N/A   Scattered Clouds
10:51 AM 84.9 °F 90.1 °F 71.1 °F 63% 29.93 in 10.0 mi WSW 16.1 mph 21.9 mph N/A   Mostly Cloudy
11:12 AM 84.2 °F 89.6 °F 71.6 °F 66% 29.92 in 10.0 mi WSW 9.2 mph 21.9 mph N/A   Scattered Clouds
11:51 AM 87.1 °F 92.0 °F 70.0 °F 57% 29.91 in 10.0 mi WSW 11.5 mph - N/A   Partly Cloudy
12:51 PM 84.9 °F 90.7 °F 72.0 °F 65% 29.90 in 10.0 mi WSW 8.1 mph 17.3 mph 0.01 in   Mostly Cloudy
1:30 PM 75.2 °F - 71.6 °F 89% 29.91 in 1.8 mi Variable 6.9 mph 17.3 mph 0.06 in Rain Heavy Rain
1:37 PM 75.2 °F - 71.6 °F 89% 29.91 in 2.0 mi West 9.2 mph 17.3 mph 0.11 in Rain , Thunderstorm Thunderstorms and Rain
1:51 PM 75.9 °F - 72.0 °F 87% 29.92 in 7.0 mi Variable 5.8 mph - 0.13 in Rain , Thunderstorm Thunderstorms and Rain
2:16 PM 77.0 °F - 73.4 °F 89% 29.91 in 10.0 mi Calm Calm - 0.00 in Rain , Thunderstorm Thunderstorms and Rain
2:49 PM 75.2 °F - 73.4 °F 94% 29.92 in 1.2 mi WSW 15.0 mph 23.0 mph 0.06 in Rain , Thunderstorm Thunderstorms and Rain
2:51 PM 75.0 °F - 72.0 °F 90% 29.92 in 0.5 mi WNW 8.1 mph 23.0 mph 0.11 in Fog , Rain , Thunderstorm Thunderstorms and Rain
2:58 PM 73.4 °F - 71.6 °F 94% 29.91 in 0.2 mi West 4.6 mph - 0.47 in Fog , Rain , Thunderstorm Thunderstorms and Rain
3:04 PM 73.4 °F - 71.6 °F 94% 29.91 in 1.0 mi West 3.5 mph - 0.53 in Rain , Thunderstorm Thunderstorms and Rain
3:11 PM 73.4 °F - 71.6 °F 94% 29.91 in 3.0 mi West 4.6 mph - 0.55 in Rain , Thunderstorm Thunderstorms and Rain
3:22 PM 73.4 °F - 69.8 °F 88% 29.92 in 1.8 mi Calm Calm - 0.57 in Rain , Thunderstorm Thunderstorms and Rain
3:31 PM 73.4 °F - 69.8 °F 88% 29.92 in 3.0 mi SSW 3.5 mph - 0.61 in Rain , Thunderstorm Thunderstorms and Rain
3:47 PM 73.4 °F - 69.8 °F 88% 29.92 in 2.0 mi South 6.9 mph - 0.66 in Rain , Thunderstorm Thunderstorms and Rain
3:51 PM 73.0 °F - 70.0 °F 90% 29.91 in 3.0 mi South 6.9 mph - 0.67 in Rain , Thunderstorm Thunderstorms and Rain
4:49 PM 73.4 °F - 71.6 °F 94% 29.91 in 10.0 mi South 8.1 mph - 0.05 in Rain Rain
4:51 PM 73.9 °F - 72.0 °F 93% 29.91 in 10.0 mi South 9.2 mph - 0.05 in Rain Rain
5:18 PM 73.4 °F - 71.6 °F 94% 29.92 in 5.0 mi South 4.6 mph - 0.01 in Rain Rain
5:36 PM 73.4 °F - 71.6 °F 94% 29.93 in 4.0 mi South 6.9 mph - 0.07 in Rain Rain
5:51 PM 73.9 °F - 71.1 °F 91% 29.93 in 2.5 mi South 8.1 mph - 0.12 in Rain Rain
5:58 PM 73.4 °F - 71.6 °F 94% 29.92 in 3.0 mi South 6.9 mph - 0.04 in Rain Rain
6:51 PM 73.9 °F - 71.1 °F 91% 29.91 in 9.0 mi South 5.8 mph - 0.14 in Rain Rain
7:51 PM 73.0 °F - 71.1 °F 93% 29.91 in 10.0 mi SSW 4.6 mph - 0.00 in   Scattered Clouds
8:51 PM 73.0 °F - 71.1 °F 93% 29.91 in 10.0 mi SSW 4.6 mph - N/A   Scattered Clouds
9:51 PM 73.0 °F - 71.1 °F 93% 29.91 in 10.0 mi Calm Calm - N/A   Scattered Clouds
10:16 PM 73.4 °F - 71.6 °F 94% 29.91 in 10.0 mi East 3.5 mph - N/A   Mostly Cloudy
10:51 PM 73.0 °F - 71.1 °F 93% 29.92 in 10.0 mi South 4.6 mph - N/A   Partly Cloudy
11:17 PM 73.4 °F - 71.6 °F 94% 29.93 in 10.0 mi South 5.8 mph - N/A   Mostly Cloudy
11:44 PM 73.4 °F - 71.6 °F 94% 29.92 in 10.0 mi South 6.9 mph - N/A   Partly Cloudy
11:51 PM 73.0 °F - 71.1 °F 93% 29.92 in 10.0 mi South 6.9 mph - N/A   Partly Cloudy